Total_Precipitation_Accumulation
2.75 2.90 2.66 2.39 2.37 2.34 2.73 3.20 3.56 3.30 2.86 2.56 2.35 2.28 2.39 2.57 2.87 2.63 2.69 2.69 2.37 2.07 1.83 1.76 1.72 1.68 1.68 1.75 1.90 1.97 2.01 2.08 2.26 2.54 2.84 3.12 3.36 3.65
2.86 2.95 2.79 2.52 2.59 2.46 2.56 2.94 3.25 3.44 3.09 2.34 2.32 2.21 2.36 2.30 2.72 2.51 2.71 2.71 2.31 2.07 1.83 1.72 1.63 1.57 1.55 1.57 1.63 1.73 1.79 1.79 1.82 1.95 2.11 2.26 2.38 2.53
2.80 2.78 2.75 2.81 2.84 2.70 2.82 2.89 2.98 3.35 3.35 2.66 2.49 2.55 2.66 2.68 2.74 2.60 2.46 2.46 2.26 2.18 1.90 1.72 1.61 1.53 1.51 1.47 1.48 1.48 1.52 1.57 1.58 1.61 1.69 1.77 1.82 1.85
3.13 3.28 3.04 3.08 3.10 2.97 2.98 2.95 3.02 3.30 3.33 3.08 2.83 2.78 2.85 2.79 2.80 2.62 2.21 2.10 2.19 2.36 2.10 1.82 1.66 1.56 1.50 1.44 1.39 1.35 1.35 1.41 1.46 1.44 1.45 1.51 1.60 1.62
2.92 3.20 3.24 3.45 3.17 3.18 3.12 3.00 3.02 3.04 3.24 3.06 2.82 2.97 2.96 2.91 2.86 2.47 2.28 2.36 2.16 2.44 2.38 1.98 1.74 1.63 1.51 1.40 1.30 1.25 1.23 1.26 1.33 1.40 1.40 1.38 1.38 1.41
2.64 2.79 2.94 3.24 3.23 3.33 3.16 3.16 3.27 3.34 3.46 3.31 3.08 3.14 3.25 3.26 3.16 2.77 2.62 2.52 2.36 2.16 2.29 2.06 1.90 1.79 1.66 1.52 1.42 1.30 1.28 1.27 1.28 1.30 1.34 1.37 1.38 1.34
2.61 2.58 2.59 2.86 2.96 3.04 2.77 2.97 3.30 3.37 3.44 3.36 3.21 3.21 3.20 3.37 3.10 2.94 2.79 2.77 2.66 2.36 2.26 1.98 1.89 1.72 1.68 1.71 1.63 1.51 1.41 1.36 1.36 1.34 1.31 1.31 1.36 1.42
2.88 2.82 2.68 2.61 2.63 2.69 2.71 2.81 2.98 2.99 3.07 3.21 3.12 3.08 3.10 3.25 3.43 3.31 3.15 3.01 2.74 2.40 2.46 2.14 1.98 1.89 1.72 1.59 1.74 1.70 1.54 1.44 1.39 1.39 1.40 1.42 1.46 1.47
2.90 2.85 2.52 2.36 2.62 2.51 2.67 2.71 2.52 2.47 2.50 2.67 2.67 2.66 3.13 3.47 3.82 3.47 3.30 3.13 2.83 2.66 2.69 2.29 2.09 2.02 1.82 1.74 1.91 1.68 1.50 1.39 1.37 1.38 1.46 1.50 1.52 1.51
2.57 2.67 2.61 2.47 2.50 2.65 2.56 2.29 2.07 2.06 2.12 2.04 2.04 2.29 2.76 3.39 3.74 3.73 3.75 3.51 3.14 2.73 2.60 2.32 2.08 1.96 1.79 1.79 2.01 1.90 1.70 1.50 1.41 1.40 1.39 1.43 1.46 1.48
2.30 2.31 2.33 2.19 2.36 2.52 2.39 2.14 1.94 1.83 1.89 1.92 1.89 2.11 2.40 2.77 3.22 3.47 3.40 3.28 2.86 2.45 2.36 2.27 2.09 2.09 2.03 1.91 1.90 2.06 1.88 1.69 1.59 1.51 1.47 1.43 1.44 1.47
2.40 2.38 2.43 2.20 2.14 2.11 1.99 1.99 1.79 1.69 1.83 1.82 1.77 1.81 1.93 2.25 2.75 2.84 2.93 3.08 2.80 2.47 2.18 2.24 2.13 2.33 2.26 1.98 1.87 1.86 1.80 1.80 1.77 1.67 1.56 1.53 1.54 1.36
2.15 2.04 2.08 2.10 1.88 1.71 1.68 1.65 1.61 1.73 1.83 1.78 1.68 1.67 1.81 2.00 2.18 2.45 2.72 2.80 2.66 2.31 2.15 2.33 2.19 2.24 2.26 1.98 1.83 1.79 1.72 1.65 1.66 1.72 1.74 1.75 1.72 1.54
2.17 2.15 2.17 2.18 1.91 1.75 1.58 1.44 1.54 1.58 1.62 1.72 1.63 1.52 1.55 1.68 1.95 2.27 2.60 2.73 2.66 2.52 2.52 2.60 2.47 2.35 2.32 2.11 1.88 1.74 1.70 1.68 1.67 1.70 1.74 1.99 1.94 1.88
2.09 2.43 2.45 2.36 2.13 1.83 1.73 1.75 1.71 1.58 1.60 1.60 1.50 1.42 1.49 1.66 1.96 2.32 2.59 2.80 2.77 2.60 2.55 2.52 2.54 2.62 2.65 2.33 2.04 1.95 1.94 1.85 1.73 1.72 1.74 1.79 1.85 1.91
2.04 2.32 2.50 2.48 2.33 2.08 1.97 1.90 1.70 1.63 1.71 1.68 1.69 1.73 1.86 2.00 2.14 2.28 2.53 2.70 2.77 2.61 2.54 2.52 2.56 2.72 2.65 2.48 2.36 2.18 2.05 1.96 1.90 1.91 1.93 1.91 1.92 1.90
2.22 2.38 2.53 2.63 2.65 2.56 2.45 2.37 2.26 2.11 1.94 1.89 1.97 1.98 2.04 2.12 2.16 2.32 2.59 2.68 2.62 2.37 2.40 2.53 2.65 2.75 2.76 2.74 2.52 2.19 2.07 1.96 1.91 2.01 2.06 1.99 1.89 1.84
2.17 2.24 2.48 2.68 2.76 2.84 2.88 2.77 2.55 2.36 2.19 2.19 2.17 2.18 2.21 2.20 2.23 2.39 2.61 2.69 2.55 2.36 2.33 2.44 2.70 2.89 2.87 2.71 2.44 2.22 2.11 1.97 1.87 1.93 1.96 1.92 1.75 1.59
1.98 2.08 2.21 2.34 2.54 2.76 2.84 2.80 2.58 2.46 2.49 2.49 2.43 2.44 2.49 2.45 2.41 2.49 2.68 2.79 2.74 2.59 2.52 2.59 2.73 2.82 2.67 2.30 2.03 1.96 1.95 1.88 1.92 1.91 1.85 1.79 1.67 1.58
1.68 1.85 2.06 2.22 2.39 2.66 2.83 2.85 2.77 2.70 2.71 2.78 2.78 2.74 2.75 2.63 2.49 2.40 2.55 2.68 2.72 2.71 2.65 2.57 2.53 2.58 2.56 2.36 2.16 1.95 1.86 1.93 1.93 1.91 1.84 1.81 1.77 1.82
1.56 1.60 1.70 1.92 2.16 2.42 2.70 2.87 2.85 2.75 2.70 2.76 2.78 2.75 2.80 2.77 2.58 2.42 2.46 2.68 2.72 2.64 2.49 2.30 2.25 2.54 2.74 2.87 2.60 2.12 1.91 1.94 2.03 2.02 2.01 2.11 2.01 1.90
1.62 1.63 1.72 1.90 2.11 2.37 2.58 2.69 2.74 2.74 2.69 2.66 2.60 2.55 2.58 2.59 2.45 2.38 2.37 2.45 2.48 2.48 2.45 2.46 2.67 2.87 2.92 2.88 2.49 2.14 2.03 2.05 2.18 2.28 2.16 2.04 1.94 1.82
1.74 1.74 1.77 1.86 2.04 2.26 2.43 2.58 2.64 2.67 2.69 2.69 2.65 2.55 2.53 2.54 2.48 2.43 2.42 2.44 2.46 2.46 2.59 2.70 2.75 2.84 2.80 2.74 2.64 2.49 2.33 2.26 2.29 2.22 1.98 1.85 1.76 1.69